Location: Eindhoven
(51.4416°N, 5.4697°E)
Time: 06:59:31
(UTC+01:00)

Tiros 1 - Pass Details

Date: 19 November 2019
Orbit: 630 x 664 km, 48.4° (Epoch: 08 December)

Event Time Altitude Azimuth Distance (km) Brightness Sun altitude
Rises 17:59:20 0° 268° (W) 2,919 12.2 -11.5°
Reaches altitude 10° 18:01:40 10° 264° (W) 2,013 11.1 -11.8°
Maximum altitude 18:06:13 59° 186° (S) 736 7.5 -12.5°
Enters shadow 18:10:04 14° 109° (ESE) 1,753 8.9 -13.1°
